Tracking 29511 objects as of 17-Sep-2024
HD Live streaming from Space Station
objects crossing your sky now

FENGYUN 1C DEB

Track FENGYUN 1C DEB now!
10-day predictions


NORAD ID: 37057
Int'l Code: 1999-025EER
Perigee: 709.2 km
Apogee: 1,127.2 km
Inclination: 99.0 °
Period: 103.2 minutes
Semi major axis: 7289 km
RCS: 0.0122 m2 (small)
Launch date: May 10, 1999
Source: People's Republic of China (PRC)
Launch site: Taiyaun Space Center, China (TSC)

Note: This is SATELLITE DEBRIS
Your satellite tracking list
Your tracking list is empty




NASA's NSSDC Master Catalog

Two Line Element Set (TLE):
1 37057U 99025EER 24258.82755055  .00002374  00000-0  12744-2 0  9991
2 37057  98.9567 280.5482 0286766 309.1617  48.4381 13.95025927782894
Source of the keplerian elements: AFSPC